This demonstration page uses our WeatherBlox Daily Observations layout. Learn more.

Left ArrowRight Arrow

Hourly Observations for May 10, 2021

Temp ( °F °C ) Dew Point ( °F °C ) Humidity (%) Winds ( mph kmh ) Pressure ( in mb ) Visibility ( mi km ) Precip ( " mm )
12:53 am 00:53 Clear 70 21.1 35 1.7 28 28 NNW 10 17 29.90 1013 10 16 0.00 0.00
1:53 am 01:53 Clear 69 20.6 36 2.2 30 30 N 14 22 29.90 1013 10 16 0.00 0.00
2:53 am 02:53 Clear 68 20 36 2.2 31 31 N 10 17 29.90 1013 10 16 0.00 0.00
3:53 am 03:53 Clear 67 19.4 36 2.2 32 32 N 12 19 29.91 1013 10 16 0.00 0.00
4:53 am 04:53 Clear 66 18.9 35 1.7 32 32 N 16 26 29.92 1013 10 16 0.00 0.00
5:53 am 05:53 Clear 65 18.3 34 1.1 32 32 N 9 15 29.93 1014 10 16 0.00 0.00
6:53 am 06:53 Sunny 66 18.9 33 0.6 29 29 N 12 19 29.96 1015 10 16 0.00 0.00
7:53 am 07:53 Sunny 68 20 33 0.6 27 27 N 15 24 29.97 1015 10 16 0.00 0.00
8:53 am 08:53 Sunny 70 21.1 33 0.6 26 26 N 16 26 29.96 1015 10 16 0.00 0.00
9:53 am 09:53 Sunny 74 23.3 32 0 21 21 NNE 23 37 29.95 1014 10 16 0.00 0.00
10:53 am 10:53 Sunny 77 25 30 -1.1 18 18 N 21 33 29.95 1014 10 16 0.00 0.00
11:53 am 11:53 Sunny 80 26.7 28 -2.2 15 15 N 20 31 29.94 1014 10 16 0.00 0.00
12:53 pm 12:53 Sunny 83 28.3 23 -5 11 11 NNE 24 39 29.91 1013 10 16 0.00 0.00
1:53 pm 13:53 Sunny 85 29.4 27 -2.8 12 12 N 17 28 29.90 1013 10 16 0.00 0.00
2:53 pm 14:53 Sunny 86 30 27 -2.8 12 12 N 17 28 29.88 1012 10 16 0.00 0.00
3:53 pm 15:53 Sunny 87 30.6 27 -2.8 11 11 N 20 31 29.86 1011 10 16 0.00 0.00
4:53 pm 16:53 Sunny 87 30.6 28 -2.2 12 12 N 12 19 29.84 1011 10 16 0.00 0.00
5:53 pm 17:53 Sunny 88 31.1 26 -3.3 10 10 NE 14 22 29.83 1010 10 16 0.00 0.00
6:53 pm 18:53 Sunny 87 30.6 26 -3.3 11 11 N 10 17 29.83 1010 10 16 0.00 0.00
7:53 pm 19:53 Sunny 80 26.7 33 0.6 18 18 NNW 5 7 29.83 1010 10 16 0.00 0.00
8:53 pm 20:53 Clear 78 25.6 32 0 19 19 NNW 6 9 29.84 1011 10 16 0.00 0.00
9:53 pm 21:53 Clear 70 21.1 37 2.8 30 30 NNW 5 7 29.86 1011 10 16 0.00 0.00
10:53 pm 22:53 Clear 69 20.6 38 3.3 32 32 N 5 7 29.87 1012 10 16 0.00 0.00
11:53 pm 23:53 Clear 68 20 37 2.8 32 32 N 6 9 29.87 1012 10 16 0.00 0.00

Powered by AerisWeather